Flag for Norway Weather past 2 weeks in Søgne, Norway

Now
64 °F

Mild.


Feels Like: 64 °F
Forecast: 47 / 61 °F
Wind: 5 mph from East

Location: Oksoy Fyr

Current Time: Aug 28, 2014 at 1:42:58 PM

Latest Report: Aug 28, 2014 at 1:00 PM


Visibility: N/A

Pressure: 29.98 "Hg

Humidity: 79%

Dew point: 57 °F

Location of SøgneLocation

Historic Weather in Søgne — Graph

°F

Søgne temperature yesterday

Maximum temperature yesterday: 65 °F (at 3:00 PM)
Minimum temperature yesterday: 53 °F (at 7:00 AM)
Average temperature yesterday: 59 °F

Past Weeks' High & Low Weather Summary

 TemperatureHumidityPressure
High67 °F (Aug 19, 2:00 PM)93% (Aug 23, 3:00 AM)29.98 "Hg (Aug 23, 3:00 AM)
Low50 °F (Aug 23, 7:00 AM)47% (Aug 16, 3:00 PM)29.18 "Hg (Aug 18, 6:00 PM)
Average58 °F76%29.61 "Hg
* Reported Aug 13 12:00 Noon — Aug 28 12:00 Noon, Søgne, Weather by CustomWeather, © 2014

Note: Actual official high and low records may vary slightly from our data, if they occured in-between our weather recording intervals... More about our weather records

Advertising

Søgne weather history for previous 24 hours

 ConditionsComfort  
Time TempWeatherWind HumidityBarometerVisibility
12:00 PM
Aug 28
61 °FCool.3 mph81%29.98 "HgN/A
11:00 AM60 °FCool.1 mph81%29.98 "HgN/A
10:00 AM59 °FCool.2 mph84%29.98 "HgN/A
9:00 AM57 °FCool.3 mph87%29.97 "HgN/A
8:00 AM56 °FCool.3 mph90%29.97 "HgN/A
7:00 AM54 °FCool.2 mph89%29.96 "HgN/A
6:00 AM54 °FCool.3 mph90%29.96 "HgN/A
5:00 AM54 °FCool.3 mph89%29.96 "HgN/A
4:00 AM55 °FCool.3 mph88%29.95 "HgN/A
3:00 AM56 °FCool.3 mph87%29.95 "HgN/A
2:00 AM57 °FCool.6 mph86%29.95 "HgN/A
1:00 AM57 °FCool.6 mph84%29.94 "HgN/A
12:00 AM58 °FCool.6 mph84%29.94 "HgN/A
11:00 PM
Aug 27
59 °FCool.6 mph79%29.94 "HgN/A
10:00 PM60 °FCool.7 mph80%29.93 "HgN/A
9:00 PM62 °FCool.8 mph82%29.93 "HgN/A
8:00 PM62 °FCool.9 mph82%29.93 "HgN/A
7:00 PM63 °FMild.10 mph80%29.94 "HgN/A
6:00 PM63 °FMild.12 mph80%29.94 "HgN/A
5:00 PM63 °FMild.9 mph79%29.95 "HgN/A
4:00 PM65 °FMild.5 mph70%29.97 "HgN/A
3:00 PM65 °FMild.3 mph69%29.97 "HgN/A
2:00 PM65 °FMild.3 mph66%29.97 "HgN/A
1:00 PM64 °FMild.2 mph65%29.98 "HgN/A
Weather by CustomWeather, © 2014

See weather overviewHow to use our weather pages